Simultaneous Nadir Overpasses (SNOs) Predictions

Prediction of SNOs between NOAA-19 and NPP Satellite Orbit:

Table of predicted SNOs for the next 14.0 days since TLE Epoch: 3/7/2014
Index Date (NOAA-19) Time (NOAA-19) Lat,Lon (NOAA-19) SZA (NOAA-19 ) Date (NPP) Time (NPP) Lat,Lon (NPP) SZA (NPP ) Distance(km) Time Diff (sec)
1 03/18/2014 07:23:55 -81.00,-164.98 94.11 03/18/2014 07:24:57 -81.00,-164.87 94.16 2.02 62
2 03/18/2014 08:14:50 80.98, 2.89 85.80 03/18/2014 08:15:41 80.99, 2.72 85.79 2.95 51
3 03/18/2014 09:05:57 -80.98, 170.20 94.24 03/18/2014 09:06:26 -80.98, 170.10 94.24 1.82 29
4 03/18/2014 09:56:54 80.98, -22.67 85.78 03/18/2014 09:57:11 80.99, -22.68 85.77 0.27 17
5 03/18/2014 10:48:00 -80.97, 145.01 94.31 03/18/2014 10:47:55 -80.97, 145.06 94.32 0.91 5
6 03/18/2014
